Track COSMOS 1057 now! 10-day predictions COSMOS 1057 is classified as:
1 11134U 78109G 22180.33209147 -.00000005 00000-0 76278-4 0 9997 2 11134 74.0175 28.1884 0021795 92.9965 79.7878 12.42099958975322